Wind_Speed
18 19 19 19 19 19 19 20 20 19 19 19 18 18 18 19 20 20 21 22 23 24 24 25 25 25 26 26 25 25 25 25 25 25 26 26 26 26 26 26 26 25 25 24 24 24 24 24 24 24 24 24 24 24 25 25 25 26 26 26 25 24 24 23 23 23 23 22 22 22 22 23 23 23 24 24 25 25 26 26 26 26 26 26 26 26
17 18 18 18 17 17 17 18 17 17 17 18 18 18 18 19 20 21 22 23 23 24 25 25 25 25 25 25 24 24 24 24 24 24 25 25 25 25 25 24 24 24 23 23 23 23 23 23 24 24 24 24 24 25 25 25 26 26 26 26 25 25 24 24 24 24 23 22 22 22 23 23 23 24 24 24 25 25 25 25 25 25 26 26 26 26
16 16 16 16 16 16 15 15 16 16 16 17 18 18 19 19 20 21 22 23 24 25 25 25 25 25 24 23 23 22 22 22 23 23 23 23 24 23 23 23 23 23 23 23 23 23 23 23 24 24 24 24 25 25 25 25 26 26 26 26 25 25 25 25 25 25 24 23 23 23 23 24 24 24 24 24 24 24 24 25 25 25 26 26 26 27
16 15 15 15 15 15 14 14 15 16 16 17 18 19 19 20 21 22 23 24 25 25 26 25 25 24 23 22 22 21 21 22 22 22 22 22 22 22 22 22 22 22 22 22 23 23 23 24 24 24 24 24 25 25 25 25 26 26 26 26 26 25 25 26 26 26 25 25 24 25 25 25 25 25 26 25 25 26 26 26 26 26 27 27 27 27
14 13 13 13 12 13 13 14 15 16 17 18 19 20 20 21 22 23 24 25 25 26 26 25 24 23 22 21 21 21 21 21 21 21 21 20 20 20 20 20 21 21 22 22 22 22 23 23 24 24 24 24 25 25 25 25 26 26 26 26 26 26 26 26 26 27 27 27 27 27 27 27 28 28 28 28 28 28 28 28 28 28 28 28 28 28
11 10 11 11 11 12 13 14 15 16 17 18 19 20 21 21 22 23 24 25 25 25 25 24 23 22 21 20 20 20 20 20 20 20 20 19 19 19 19 19 19 20 20 21 21 21 22 22 22 23 23 23 24 24 24 25 25 25 25 26 26 26 26 26 26 27 27 28 28 28 28 29 29 29 28 28 28 28 28 28 28 28 28 28 28 28
9 9 10 11 12 13 14 15 16 16 17 18 19 20 21 22 23 23 24 24 24 23 23 22 22 21 20 20 20 20 20 20 20 20 19 18 17 17 17 17 17 17 18 18 19 19 19 19 20 20 21 21 22 22 22 23 23 23 24 24 24 25 25 25 26 26 26 27 27 27 27 27 27 27 27 27 27 27 27 27 28 28 28 29 29 29
9 10 11 12 13 14 15 15 15 16 16 18 19 21 22 23 23 22 22 22 22 22 21 21 21 21 20 20 20 20 20 20 20 19 18 16 15 15 15 15 15 15 15 15 16 16 16 16 17 17 18 18 19 19 20 20 20 21 21 22 23 23 24 24 25 25 25 25 26 26 26 26 26 26 27 27 27 27 28 28 29 29 29 29 29 29
10 10 11 12 13 14 15 15 15 16 17 18 19 21 22 22 21 21 20 20 20 20 20 21 22 22 21 21 20 20 20 19 18 17 16 15 14 14 14 14 14 14 14 14 14 14 14 14 15 15 16 16 17 17 18 18 19 20 20 21 22 22 23 23 24 24 24 25 25 26 26 26 27 27 27 28 28 29 29 29 30 30 30 29 29 29
11 11 12 13 14 14 15 15 16 17 18 19 19 20 20 19 18 18 18 18 18 19 20 21 22 22 22 21 20 20 19 18 17 16 15 15 15 15 15 15 15 15 15 15 15 15 15 15 15 15 15 16 16 17 17 18 19 20 20 21 21 22 23 23 24 24 25 25 26 26 27 27 27 28 28 29 29 29 30 30 30 30 30 30 29 28
12 12 12 13 14 15 16 16 17 18 18 18 18 17 16 15 15 15 16 17 18 19 20 21 22 22 22 22 21 19 18 17 16 15 14 15 15 16 16 17 17 17 17 17 17 17 16 16 16 16 16 16 16 17 18 18 19 20 20 21 21 22 22 23 23 24 25 25 26 27 27 28 28 28 29 29 29 30 30 31 31 31 31 30 30 29
11 11 12 13 13 14 16 17 17 17 16 15 14 13 12 11 12 13 15 18 20 21 21 21 21 21 21 21 21 19 17 16 15 15 14 15 16 17 17 18 19 19 19 19 19 18 17 16 16 16 16 16 17 17 18 19 19 20 20 21 21 22 22 23 23 24 25 25 26 26 27 28 28 29 29 29 30 31 31 32 32 32 31 31 30 29
11 11 12 13 14 15 15 15 14 12 11 10 9 9 9 10 12 15 17 19 20 20 19 19 20 21 21 21 19 17 15 14 14 14 14 14 15 17 18 19 20 21 22 21 20 18 17 17 17 16 16 16 17 18 18 19 20 20 20 21 21 21 22 22 23 23 24 25 25 26 27 27 28 29 29 30 31 31 31 31 32 31 31 31 30 30
9 10 11 12 13 14 13 11 10 8 7 7 8 9 11 14 16 17 18 18 17 16 17 18 19 21 22 20 17 15 13 13 13 13 14 14 15 17 18 20 22 23 23 22 21 19 17 17 17 17 17 17 17 18 19 19 20 20 20 20 21 21 21 21 22 22 23 23 24 25 25 26 27 28 29 29 30 30 30 30 30 30 30 30 30 30
9 10 11 11 11 11 9 8 7 7 8 9 11 13 15 16 16 15 14 13 13 14 16 18 20 21 21 18 15 12 11 12 13 14 14 15 16 18 20 22 23 23 23 22 21 19 18 18 18 18 18 18 18 19 19 20 20 20 20 20 20 20 20 20 20 21 21 22 22 23 24 25 26 27 27 28 28 28 29 29 29 30 29 29 29 30
9 10 10 9 9 8 8 8 8 9 10 12 13 13 13 13 12 11 10 11 13 15 17 19 20 21 19 16 13 11 11 11 12 14 16 17 19 20 21 23 24 24 22 21 20 20 19 18 19 19 19 19 20 20 20 20 20 20 19 19 19 19 19 19 19 20 20 21 21 22 23 23 24 25 26 27 27 27 28 29 29 29 29 29 29 29
9 9 9 9 9 9 9 10 10 11 11 11 11 10 9 9 10 11 12 13 15 17 17 17 18 18 17 16 13 11 11 11 12 14 17 20 22 22 22 23 24 24 22 21 20 20 20 20 20 20 21 21 21 21 20 20 20 19 19 19 19 19 19 19 20 20 20 21 21 22 22 23 24 24 25 26 26 27 28 28 29 29 29 28 28 29
8 8 9 9 10 10 10 10 10 10 9 9 8 8 9 10 11 13 14 15 16 17 16 16 16 15 15 15 14 13 12 13 14 16 19 23 24 23 22 22 23 22 22 21 20 20 20 21 22 22 22 22 21 21 21 20 20 20 19 19 20 20 20 20 20 20 20 21 21 21 22 22 23 24 25 25 26 27 27 28 29 29 29 29 28 28
8 8 8 9 10 10 10 9 8 8 8 8 10 11 12 13 15 15 16 16 16 15 15 15 15 15 16 16 16 15 15 15 17 19 22 25 25 24 21 21 21 22 21 21 21 21 21 22 22 23 23 22 22 22 21 21 21 20 20 20 20 20 20 20 20 20 20 20 20 21 21 22 23 23 24 25 26 26 27 28 28 29 29 29 28 28
8 8 8 8 9 8 8 8 8 8 9 11 13 15 16 17 17 17 16 15 15 14 15 15 16 16 17 18 18 17 17 18 19 21 23 26 25 23 21 20 21 22 22 22 21 21 22 23 24 24 23 23 23 22 22 21 21 20 20 19 19 19 19 19 19 20 20 20 20 21 21 22 22 23 24 24 25 26 27 27 27 28 28 28 28 28
8 8 8 7 7 8 9 9 10 11 13 15 17 18 18 18 16 15 14 14 14 15 15 16 17 17 17 19 20 20 20 20 21 22 23 25 25 23 21 20 21 22 22 22 22 22 23 25 25 25 24 24 23 22 22 21 20 19 19 18 18 18 19 19 19 19 19 20 20 21 21 22 22 23 23 24 25 26 26 27 27 27 28 29 29 29
11 11 10 10 10 11 13 14 15 16 18 19 19 19 18 16 14 13 14 14 15 15 16 17 18 18 20 21 22 23 22 21 20 20 22 24 25 24 21 20 21 22 23 23 23 23 24 25 26 25 24 24 23 22 21 20 19 18 18 18 18 18 18 18 18 18 19 19 20 20 21 22 22 23 24 25 25 26 26 27 27 28 29 30 30 30
14 14 14 15 15 17 18 19 20 20 20 20 19 18 16 14 13 14 15 15 16 16 17 18 20 21 23 24 24 23 22 20 18 18 19 22 24 24 21 21 21 22 24 24 24 24 25 26 26 25 24 23 22 21 20 19 19 19 19 19 18 18 18 18 18 18 19 19 19 20 21 21 22 23 24 25 25 26 27 27 28 29 29 30 31 32
15 16 17 18 18 19 20 20 20 20 20 19 18 16 14 13 13 14 15 16 18 19 21 22 23 23 24 24 23 22 20 18 17 17 18 21 23 23 22 21 21 22 24 24 25 25 26 26 26 26 25 24 22 21 20 19 20 20 20 20 20 19 19 19 19 19 19 19 19 20 20 21 22 22 23 24 25 25 26 27 28 28 29 30 31 32
17 17 18 18 18 18 18 18 18 18 18 18 16 15 14 14 15 16 18 19 20 21 22 22 22 22 23 22 21 20 19 18 16 16 18 20 22 23 22 21 21 23 24 25 25 26 27 28 27 26 25 24 22 21 20 20 21 21 22 22 21 21 21 21 21 20 20 20 20 20 20 20 21 21 22 22 23 24 24 25 26 27 28 29 29 30
17 17 17 17 17 17 17 17 18 18 17 16 15 15 16 17 18 18 19 20 20 20 19 20 20 21 22 21 21 20 19 18 17 17 17 19 22 23 22 21 21 22 24 26 27 27 28 29 29 27 26 24 22 21 21 22 22 23 23 23 22 22 22 22 22 21 21 21 20 20 20 20 20 20 20 21 21 22 23 23 24 25 26 26 27 28
14 14 15 15 16 16 16 16 16 16 15 15 16 16 17 18 18 19 20 19 19 18 18 18 20 21 22 22 22 21 20 19 18 18 17 19 21 22 22 21 21 22 24 27 28 28 29 30 30 28 26 25 23 23 23 23 24 24 24 23 23 23 23 23 23 22 22 22 22 22 21 21 21 21 20 20 21 21 22 22 23 23 24 24 25 27
11 12 13 14 14 15 15 15 14 14 13 13 14 14 15 17 18 20 20 19 18 18 18 19 20 21 22 23 23 22 21 21 19 17 16 17 19 21 21 20 21 22 24 27 29 30 30 30 30 28 27 26 25 25 25 25 25 25 24 24 23 23 24 24 24 24 24 24 23 23 23 22 22 21 21 21 21 21 21 21 22 22 23 23 25 27
11 11 11 11 12 12 12 12 12 12 12 12 13 14 15 16 18 19 20 19 18 18 19 20 21 21 22 23 23 24 23 21 18 14 13 15 17 20 21 21 21 22 24 27 30 31 31 30 29 27 27 26 26 27 27 26 26 25 25 24 24 24 25 25 26 26 26 25 25 24 24 23 23 22 22 21 21 21 21 21 21 21 22 23 25 27
11 11 10 10 10 10 10 10 10 11 11 12 12 13 15 16 17 18 18 18 18 19 19 20 21 21 21 22 23 24 22 18 13 11 12 14 17 20 21 22 22 23 24 26 28 31 31 30 28 27 26 27 27 27 27 27 26 26 26 26 26 26 27 27 28 28 28 27 27 26 25 24 23 23 23 22 22 22 21 21 20 21 22 23 25 26
11 10 10 10 9 9 9 9 10 10 11 11 12 13 14 15 15 16 16 17 18 18 19 20 20 21 21 21 21 21 20 16 12 11 13 15 18 21 22 23 24 24 24 23 24 27 30 31 30 28 27 28 28 28 28 27 27 27 27 27 28 28 28 29 29 29 29 29 28 27 26 25 24 24 23 23 22 22 21 20 19 20 21 22 24 25
10 10 10 9 9 10 10 10 10 11 11 12 12 13 13 14 15 15 16 17 17 18 19 20 20 21 21 21 21 21 22 18 16 15 16 18 20 23 23 24 24 24 24 23 23 24 26 30 33 32 30 30 29 29 28 28 28 28 28 29 29 30 30 30 31 31 30 30 28 27 26 25 24 24 23 23 22 21 20 19 19 19 20 21 23 24
9 9 9 9 10 10 10 11 11 12 12 13 13 14 15 15 16 16 16 17 17 18 18 19 20 20 21 21 22 23 23 21 19 17 17 19 21 22 23 24 25 25 25 25 24 25 26 30 33 34 33 32 31 30 29 29 28 28 29 29 30 30 31 31 31 31 31 30 29 28 26 25 25 24 24 23 22 22 21 20 19 19 20 21 23 24
9 9 9 10 10 10 11 11 12 13 13 14 14 15 16 16 16 17 17 17 17 18 18 18 19 19 20 21 22 23 22 21 18 17 18 19 20 22 24 25 26 27 27 26 25 25 27 29 31 32 33 33 32 31 30 29 29 28 29 29 30 30 31 31 31 31 31 30 29 28 27 26 26 25 24 24 23 22 22 21 21 20 20 21 22 24
9 9 10 10 10 11 11 12 13 13 14 14 15 15 16 16 17 17 17 17 17 17 17 18 18 18 19 20 21 22 22 20 18 18 18 19 21 23 24 25 26 26 26 26 26 26 27 28 28 29 31 34 34 33 31 29 29 29 29 29 29 30 31 31 31 31 30 30 29 29 28 28 27 26 26 25 24 23 23 22 22 21 21 20 21 22
9 9 10 10 11 11 12 12 13 14 14 15 15 15 16 16 16 16 17 17 17 17 17 17 18 18 18 19 20 20 20 19 18 18 19 19 20 22 23 24 24 24 25 25 26 26 27 28 29 29 30 32 34 34 32 30 29 29 29 30 30 31 31 31 30 30 30 30 30 30 29 29 28 28 27 26 25 25 24 23 22 22 21 21 21 21
10 10 10 10 11 11 12 13 13 14 15 15 15 15 15 15 15 16 16 16 16 17 17 17 17 18 18 18 19 19 19 19 19 18 18 19 19 20 22 23 23 22 23 24 25 26 27 29 30 30 30 30 30 31 32 32 31 31 32 31 31 31 31 30 30 29 30 30 30 30 30 29 29 29 28 27 26 25 25 24 23 23 22 22 22 22
10 10 10 10 11 11 12 13 13 14 14 14 14 14 15 15 15 15 15 16 16 16 16 17 17 17 17 18 18 18 18 18 18 18 18 18 18 19 20 21 21 21 21 22 23 25 26 28 29 30 30 30 30 31 33 33 33 34 33 33 32 32 31 30 30 29 30 30 30 30 30 30 30 29 29 28 27 27 26 26 25 25 25 25 25 25
10 10 10 10 10 11 12 13 13 14 14 14 14 14 14 14 15 15 15 15 15 15 16 16 16 17 17 17 17 17 18 18 18 18 17 17 17 18 18 20 21 21 21 21 22 23 25 27 29 30 31 32 33 34 34 34 34 35 35 34 33 32 31 30 30 30 30 30 31 31 31 30 30 29 29 29 28 28 28 28 28 28 27 28 28 27
10 10 9 10 11 12 12 13 13 14 14 14 14 14 14 14 14 14 14 14 14 15 15 15 16 16 16 16 16 17 17 17 17 17 17 17 17 17 18 19 20 20 21 21 22 23 25 27 29 30 31 32 33 34 35 35 34 34 34 35 36 35 32 31 30 30 30 30 31 31 31 31 30 30 29 29 29 29 29 29 29 29 29 28 28 29
9 9 10 10 11 12 13 13 14 14 14 14 14 14 14 14 14 14 14 14 14 14 15 15 16 16 16 17 17 17 17 17 17 17 17 17 17 17 18 19 19 20 21 22 23 24 25 27 29 30 31 32 33 34 35 35 34 34 34 35 35 35 34 32 31 31 31 31 31 31 31 31 30 30 30 30 29 29 29 30 30 30 29 28 28 29
9 9 10 11 11 12 13 13 14 14 14 14 13 13 13 14 14 14 14 14 14 15 15 16 16 17 17 18 18 18 17 17 17 17 17 17 17 18 18 19 19 20 21 22 24 25 26 27 28 30 31 31 32 33 35 36 35 34 34 34 35 36 36 34 32 31 31 32 31 31 31 31 31 31 31 31 31 31 31 31 31 30 30 30 30 31
9 9 10 11 12 12 13 13 13 13 13 13 13 13 13 13 14 14 14 14 14 14 15 16 16 17 18 18 18 18 18 18 17 18 18 18 18 18 18 19 19 20 20 22 24 26 26 27 28 29 30 31 32 33 34 36 36 35 34 33 34 35 36 35 34 32 32 32 32 32 32 32 32 32 32 33 33 33 33 33 31 31 32 32 32 32
9 10 10 11 12 12 13 13 13 13 13 13 12 13 13 13 13 13 14 14 14 14 15 16 17 18 18 19 19 20 20 19 19 18 18 18 17 17 18 18 19 19 20 21 23 25 26 27 28 29 29 30 31 33 34 35 36 36 35 34 33 33 34 35 35 34 34 34 33 33 33 33 33 33 34 34 34 34 34 34 34 34 34 33 33 33
9 10 11 11 12 12 13 13 13 13 12 12 12 12 13 13 13 14 14 14 15 15 16 17 18 19 20 21 21 22 22 22 21 20 20 19 18 17 17 18 18 19 20 21 23 24 26 28 29 29 29 30 31 33 35 35 36 36 35 34 33 33 34 34 34 34 34 34 34 34 33 33 33 34 34 34 35 35 35 35 35 35 35 34 34 33
10 11 11 12 12 12 12 13 12 12 12 12 12 13 13 14 14 15 15 16 17 17 18 18 19 20 22 23 23 24 24 24 24 23 22 21 20 19 19 19 19 19 20 21 23 24 25 27 28 29 30 31 32 34 34 35 35 35 35 33 33 33 33 34 34 34 34 34 34 34 34 33 33 33 34 35 36 36 36 35 35 35 35 34 34 33
11 11 12 12 12 12 12 12 12 12 13 13 13 14 15 15 16 17 17 18 19 19 20 21 21 22 23 24 24 24 25 25 25 24 23 23 22 21 20 20 20 20 20 21 22 24 25 26 27 28 29 31 33 34 34 33 33 33 33 33 33 33 34 34 34 34 33 33 34 34 34 33 33 33 34 35 36 36 36 36 35 35 34 34 34 33
11 11 12 12 12 12 12 12 13 13 14 14 15 15 16 17 17 18 19 19 20 20 21 22 22 23 24 24 24 24 24 25 25 25 25 24 23 23 22 22 21 21 21 22 23 24 25 26 26 27 27 29 31 33 33 32 31 31 32 32 32 33 34 34 34 34 33 33 34 34 33 33 32 33 35 36 37 37 37 37 36 35 34 33 32 32
11 12 12 12 12 12 12 13 13 14 14 15 15 16 17 17 18 19 19 20 21 21 22 23 23 24 24 25 25 24 24 24 25 26 25 25 25 25 24 24 23 23 23 23 24 25 26 27 27 26 25 26 27 30 31 31 31 31 31 31 31 32 33 34 34 33 33 33 33 33 33 32 33 34 35 36 37 38 39 38 36 35 33 32 31 31
11 12 12 12 12 13 13 13 14 14 15 15 16 17 17 18 18 19 20 20 21 22 22 23 23 24 24 25 25 25 24 25 26 26 26 26 26 26 26 25 25 25 25 26 26 26 27 27 27 26 25 24 24 25 28 30 31 31 30 30 30 31 32 33 33 33 32 32 33 33 33 34 35 35 35 36 37 38 38 38 36 35 33 31 30 30
12 12 12 12 13 13 13 14 14 14 15 16 17 17 18 18 19 20 20 21 22 22 23 23 23 24 24 24 25 25 25 25 26 27 27 27 26 26 26 26 26 26 26 27 27 27 26 27 27 26 26 24 22 22 23 26 28 29 30 30 30 30 30 31 32 32 32 33 33 34 34 35 35 35 34 35 35 36 37 36 36 35 33 31 30 30
Wind_Direction
243 246 249 252 253 256 260 263 266 270 274 276 279 282 287 291 294 296 297 298 299 299 298 299 299 300 300 299 298 297 296 295 294 293 292 291 291 291 291 291 292 292 292 292 292 291 291 290 290 289 288 288 287 287 286 285 285 284 284 283 282 281 278 276 276 276 277 276 275 274 273 272 271 270 269 268 268 269 269 269 269 269 269 269 270 271
246 249 252 255 257 258 262 266 270 273 278 283 286 290 294 297 298 299 298 298 298 298 298 298 298 299 299 298 298 297 296 295 294 293 292 292 292 291 291 291 291 291 291 291 290 290 290 289 289 288 288 287 286 286 285 285 284 284 283 283 282 281 278 276 274 274 275 276 275 274 273 273 272 272 271 271 271 271 271 272 271 271 271 270 270 270
247 250 253 257 258 260 263 268 272 277 282 288 292 295 298 298 298 298 299 299 299 299 299 299 300 300 300 300 299 298 296 295 294 293 293 292 291 291 291 290 290 290 290 290 289 289 289 288 288 288 287 287 286 286 285 284 283 283 283 283 282 280 278 276 275 274 275 275 275 275 274 274 274 274 273 273 273 273 273 273 273 273 272 271 270 270
251 254 259 262 266 269 273 278 282 287 291 295 297 298 299 299 299 299 299 300 301 301 301 302 303 303 303 302 301 299 298 296 295 294 293 292 291 290 290 289 289 289 289 289 289 288 288 288 288 287 287 287 286 286 285 284 283 282 282 281 280 279 277 276 275 274 274 274 273 273 273 273 273 273 273 274 274 274 274 274 274 274 273 273 272 272
258 262 267 272 278 283 287 289 292 296 298 299 299 299 300 300 300 301 301 301 302 303 303 304 305 305 305 304 302 301 299 298 296 295 294 292 291 290 289 288 288 288 288 288 288 287 287 287 287 287 287 286 286 285 284 283 282 281 281 280 279 278 277 276 275 274 273 273 272 271 272 272 272 272 273 274 274 275 276 276 276 275 275 275 274 274
263 268 274 279 283 288 293 293 294 296 297 298 298 299 301 302 302 302 302 302 303 304 305 306 306 306 306 305 305 303 302 300 299 297 296 294 292 290 289 288 287 287 286 286 286 286 285 285 285 285 285 284 284 283 282 281 280 279 279 279 278 278 277 276 275 275 274 273 273 273 273 273 274 275 275 276 277 278 278 278 278 278 278 277 277 276
265 270 277 280 284 289 292 293 294 295 296 297 299 300 302 303 303 303 303 303 304 305 306 306 307 307 308 308 308 307 306 304 302 300 298 297 295 293 291 289 288 287 286 285 284 284 283 283 282 282 281 281 280 280 279 278 278 278 277 277 277 277 277 277 277 277 276 276 276 276 277 277 277 278 279 279 280 280 280 280 280 279 279 279 279 278
270 273 277 281 286 291 293 295 295 294 296 298 300 302 302 303 303 302 302 303 304 305 306 307 309 310 311 312 312 311 309 307 305 303 302 300 298 297 296 294 293 291 289 288 286 284 283 282 281 280 279 279 279 279 278 278 278 278 277 277 277 278 278 278 279 279 279 279 279 279 279 280 280 281 281 281 281 281 281 280 280 279 279 279 279 279
278 280 281 283 287 291 293 292 291 291 294 298 299 300 301 301 301 301 302 304 305 307 308 310 311 312 313 314 314 314 312 310 308 307 307 307 306 305 304 303 302 300 299 297 295 294 292 290 288 286 284 282 282 282 282 281 281 280 280 279 279 279 279 280 280 280 280 280 280 280 280 281 281 281 281 281 281 281 280 280 280 279 279 279 279 279
287 288 288 288 288 290 291 289 289 292 296 299 300 300 300 301 302 304 306 307 307 308 309 310 311 313 314 316 317 317 315 313 312 312 314 315 315 315 314 314 313 312 311 311 310 308 306 303 300 296 292 289 288 286 286 285 284 283 282 281 281 281 281 281 280 280 280 280 280 280 280 280 280 280 280 279 279 279 279 279 279 279 279 279 278 277
291 291 292 291 290 290 290 291 294 298 301 304 305 306 306 305 305 307 308 306 305 306 306 308 310 313 316 318 320 321 319 318 318 320 321 321 320 319 319 318 318 318 318 317 315 314 312 309 305 301 297 294 292 290 288 286 285 284 283 283 283 282 282 281 281 281 280 280 279 279 279 278 278 278 278 278 277 277 277 277 277 277 277 277 277 276
288 288 289 288 288 288 291 296 301 306 309 310 310 309 307 305 303 302 300 300 301 304 307 310 312 314 316 319 321 323 322 322 322 324 324 321 319 318 317 317 317 317 317 316 315 314 312 309 305 302 298 295 293 291 289 288 287 287 286 286 286 286 285 284 283 282 281 280 279 278 278 277 277 276 276 276 275 275 275 275 275 275 276 276 276 275
285 284 284 285 286 289 294 301 308 311 310 306 301 295 292 289 289 291 294 297 302 306 310 312 312 313 315 318 322 323 324 323 322 320 317 314 312 312 313 312 313 314 316 315 316 315 313 310 306 303 300 297 295 293 293 292 293 293 294 293 292 291 290 288 286 284 282 281 280 279 278 277 276 276 275 275 275 276 276 276 276 275 275 275 275 275
280 281 282 284 288 294 301 306 307 301 291 283 277 276 277 280 285 291 297 301 305 308 310 308 307 308 311 317 322 326 325 322 317 313 308 306 306 308 309 309 310 312 315 315 315 316 315 312 308 306 304 301 300 300 301 301 301 302 301 299 298 295 293 290 288 286 284 283 281 280 279 278 277 277 277 277 277 277 277 276 276 276 276 275 275 274
273 276 280 284 290 296 300 299 291 281 274 271 271 275 280 285 291 297 301 302 302 303 303 302 303 306 310 317 324 329 327 319 312 307 304 302 304 307 309 308 309 312 315 314 315 316 316 313 311 311 310 309 309 309 310 310 309 307 305 303 300 297 294 292 290 288 287 285 284 283 282 281 280 279 279 279 278 278 277 276 275 275 275 275 274 274
271 274 278 282 285 285 282 276 272 271 273 275 279 284 290 293 296 297 296 294 294 296 299 303 306 309 311 317 326 332 328 317 309 306 304 301 303 309 312 309 308 310 314 314 315 317 317 316 315 316 316 316 316 316 315 314 312 310 308 305 302 300 298 295 294 292 291 289 287 286 284 283 282 281 280 279 278 277 276 275 274 274 275 275 275 275
270 271 274 275 274 273 271 271 272 275 279 283 286 288 289 289 288 287 285 287 291 296 300 305 308 309 310 315 322 329 328 317 308 304 303 301 305 312 315 311 308 310 314 315 317 318 320 320 320 320 319 319 319 319 318 317 315 313 311 309 306 304 301 299 296 294 293 291 289 287 286 284 283 281 280 279 278 277 275 274 274 274 275 276 276 276
267 267 268 269 271 273 275 277 279 280 281 281 280 277 275 275 278 280 283 288 293 297 301 302 302 302 303 304 311 321 323 314 306 303 302 302 308 314 317 313 311 312 315 317 319 321 322 322 322 321 320 320 320 320 320 320 318 317 314 311 308 305 302 299 296 294 292 290 289 287 286 285 284 283 281 280 278 277 276 274 274 274 275 276 276 276
263 264 267 271 276 278 280 279 278 275 274 270 269 269 272 274 277 281 285 289 293 296 297 297 295 294 295 297 304 312 313 307 304 302 301 303 309 316 318 315 313 314 317 319 320 322 323 322 321 320 320 320 322 322 322 322 320 317 314 310 307 303 300 297 294 292 291 290 289 288 287 286 285 284 283 281 280 278 277 276 275 274 275 276 276 276
267 269 271 277 280 280 277 273 268 265 263 263 267 272 274 279 284 287 290 293 295 295 294 293 292 291 292 294 299 305 306 304 302 302 302 304 310 316 318 315 314 314 317 319 322 323 323 322 321 320 320 321 322 323 322 321 319 316 312 309 305 301 299 296 294 293 292 291 290 289 288 287 286 285 284 283 282 280 279 278 277 276 275 276 276 276
267 270 274 275 274 270 266 263 260 259 262 267 272 277 281 286 290 292 294 295 295 294 292 291 289 289 291 291 294 299 306 305 303 302 303 305 309 314 318 316 314 314 315 319 321 323 322 321 321 320 321 321 322 323 322 321 319 316 313 310 306 303 300 298 297 296 295 294 292 291 290 289 288 287 286 284 283 282 281 280 278 276 275 275 275 275
264 263 261 259 258 258 258 258 260 265 270 274 278 282 286 291 293 293 294 295 294 292 291 288 286 285 286 288 294 302 307 307 304 301 302 302 306 312 318 315 313 312 314 318 320 321 321 320 319 319 320 321 322 323 323 323 321 319 317 314 311 308 305 303 302 300 298 297 295 294 293 291 290 289 287 286 284 283 281 280 278 277 275 274 273 273
263 261 259 258 258 259 261 264 268 273 277 280 283 286 291 296 298 297 297 295 291 287 285 284 284 286 289 293 299 305 309 308 306 301 298 295 300 308 314 312 310 310 312 317 318 318 318 318 318 319 320 322 324 325 326 325 324 323 321 320 318 315 313 311 308 306 304 302 300 298 296 294 292 290 288 286 285 283 282 281 279 278 276 275 274 273
264 265 266 268 269 271 274 276 279 282 285 287 288 290 293 293 291 288 287 284 281 280 280 283 287 291 295 299 302 304 307 306 302 297 292 290 295 303 308 308 307 307 311 315 316 315 315 316 317 320 321 323 326 327 327 327 327 327 327 326 325 323 321 318 315 313 310 307 304 301 298 295 293 290 288 287 285 284 283 281 280 279 278 277 276 275
268 271 274 278 281 283 284 286 288 290 292 293 293 292 289 283 277 273 272 274 277 279 284 289 291 292 294 297 298 299 302 302 298 293 290 290 295 300 305 306 306 306 309 313 315 314 313 314 316 319 322 324 327 328 329 329 330 331 331 330 329 327 324 321 319 316 314 311 308 305 302 299 297 295 292 290 287 285 284 282 281 280 280 279 278 277
274 277 280 283 285 287 288 289 291 292 293 292 289 287 286 282 279 277 277 278 280 283 286 287 287 288 291 292 293 295 299 300 298 295 292 291 293 298 304 307 308 307 308 311 312 311 310 311 315 319 322 325 327 329 330 331 332 332 332 331 329 327 324 322 320 318 317 315 312 310 308 306 303 301 299 296 294 291 289 287 285 284 283 283 281 280
277 279 281 283 285 286 287 288 288 289 288 286 284 283 282 281 281 280 280 281 283 284 284 282 283 286 289 290 292 294 298 298 298 298 296 293 292 295 302 308 309 307 306 307 308 308 308 310 314 318 322 325 327 329 330 331 331 331 330 329 328 326 324 323 322 321 320 318 316 315 313 311 310 308 305 303 301 298 296 294 292 290 288 287 284 281
284 284 284 284 285 285 285 285 286 285 284 283 281 280 278 277 277 277 279 283 284 282 279 277 279 283 286 288 292 296 297 298 301 304 303 298 294 295 302 306 306 304 303 304 306 308 309 311 315 319 322 324 325 327 328 328 328 328 328 327 327 326 325 325 325 324 323 321 320 318 316 315 313 311 309 308 305 303 301 298 296 294 291 288 285 282
296 293 290 288 287 286 285 285 285 284 284 282 280 278 275 274 274 276 280 283 282 278 276 276 278 282 286 290 294 297 298 304 311 315 310 301 294 295 301 303 302 301 302 304 307 309 310 312 315 318 319 321 322 322 324 324 325 325 326 326 326 326 327 327 327 326 325 323 322 320 318 317 315 314 312 310 308 306 303 301 298 296 292 288 285 283
304 302 300 296 292 289 286 286 285 284 283 281 279 276 274 274 275 278 281 281 278 276 277 278 280 282 285 290 293 296 299 308 315 312 303 294 290 292 297 298 298 300 302 305 308 309 310 313 315 316 316 316 316 317 319 321 323 324 325 326 326 326 327 327 327 326 325 324 322 321 319 318 317 315 314 312 310 308 306 303 300 296 292 289 286 284
305 305 304 302 298 295 293 291 290 288 286 284 281 279 278 278 279 280 280 279 279 279 279 281 282 283 284 286 287 288 292 299 300 292 289 285 286 289 294 295 298 301 303 304 304 305 307 310 313 314 313 312 313 315 318 320 321 323 324 324 325 325 326 326 325 325 324 323 322 321 320 319 317 316 315 313 311 310 308 306 303 299 294 291 288 286
302 302 302 301 300 299 298 297 297 295 294 292 290 288 286 285 285 284 283 283 283 283 282 283 283 284 284 284 283 284 288 293 293 289 288 287 289 292 295 297 299 302 303 302 299 298 299 302 308 312 313 313 314 316 318 319 320 321 322 322 322 322 324 324 324 323 322 322 321 321 320 319 318 317 316 315 314 313 311 310 307 303 298 294 292 290
302 301 301 300 300 300 300 300 300 299 298 297 296 294 293 291 290 289 288 287 286 285 284 284 284 285 285 285 286 288 292 295 297 297 295 293 293 295 298 299 299 300 302 301 298 295 293 296 302 308 311 313 314 316 316 318 318 319 319 318 318 320 321 322 321 320 320 320 320 320 320 320 320 320 319 318 317 316 315 314 311 307 302 297 294 293
302 302 302 302 302 302 301 301 300 299 299 298 297 295 294 293 292 291 290 289 288 286 286 285 285 285 286 286 288 291 295 298 301 302 298 295 294 295 297 297 297 298 300 299 298 297 295 296 299 303 306 310 312 313 314 315 316 316 316 315 315 316 317 318 318 318 318 318 319 320 321 322 322 322 321 321 320 319 317 316 314 309 304 298 294 293
301 301 302 301 302 301 300 300 299 298 298 298 297 295 294 294 293 293 292 291 290 289 288 288 287 287 286 286 288 291 296 299 301 299 297 293 292 293 295 296 297 299 299 299 298 298 297 298 298 300 302 306 309 312 313 314 314 315 314 314 313 313 315 316 316 316 317 317 318 319 321 323 323 323 323 322 321 320 318 316 313 309 304 299 293 290
299 299 299 298 297 297 297 297 298 298 299 298 297 296 296 296 296 296 295 295 294 293 292 292 291 290 289 288 289 292 296 299 299 297 296 294 294 295 295 297 299 299 299 298 299 298 298 299 300 301 301 301 305 309 313 315 314 313 313 313 313 314 315 316 317 317 317 317 318 319 321 322 322 322 322 322 321 319 317 315 312 310 308 304 299 294
296 296 294 294 294 296 297 298 299 300 300 300 299 299 299 299 299 298 298 298 297 297 296 295 294 292 292 291 292 293 296 298 299 298 298 298 298 297 297 298 300 300 298 299 300 300 300 299 300 301 300 298 299 303 309 312 313 313 314 315 315 316 317 319 320 319 317 317 317 318 319 319 319 319 320 320 320 320 318 317 316 315 313 311 308 303
291 291 292 293 295 298 300 301 302 302 303 302 303 303 303 302 302 301 301 300 300 299 297 296 295 294 293 293 294 295 296 296 297 298 300 301 300 300 299 300 301 301 301 301 301 301 300 298 297 297 299 299 300 302 305 308 310 312 315 317 318 318 319 320 321 319 317 316 316 316 317 317 317 318 319 320 320 320 318 318 318 318 316 314 312 309
288 289 292 296 298 301 302 304 304 304 304 305 306 306 306 305 305 304 304 303 303 302 300 299 297 297 296 296 295 296 296 296 297 299 301 302 302 301 301 301 302 304 305 305 304 302 299 296 294 294 296 298 301 304 306 307 308 311 315 317 319 320 321 321 320 318 316 315 315 315 316 317 318 318 318 319 319 317 316 315 315 315 314 312 310 308
288 292 297 300 302 302 304 304 305 305 306 307 307 307 307 307 307 307 307 307 306 305 303 302 301 300 299 298 297 297 297 298 300 301 303 304 304 304 303 303 305 307 309 309 307 303 299 297 296 295 296 296 298 301 305 306 307 310 312 312 314 317 321 321 319 318 317 317 316 315 316 317 317 316 316 316 315 313 312 312 311 311 310 307 304 303
292 297 301 302 303 303 304 304 305 306 307 307 308 308 309 310 311 310 310 310 309 308 307 305 304 302 301 300 300 300 301 302 304 305 306 307 308 307 306 306 308 310 312 310 307 304 300 297 297 297 297 297 298 300 302 303 306 308 307 306 308 313 318 319 319 319 319 317 316 315 315 314 314 314 314 313 312 312 311 310 309 308 307 304 301 300
296 300 302 302 302 302 303 304 305 305 306 307 309 310 312 312 313 313 313 313 313 312 310 308 307 305 304 303 304 305 306 308 309 310 311 312 312 312 311 310 311 312 312 309 306 304 302 299 297 296 297 298 298 298 299 302 305 306 304 304 306 311 314 317 319 319 317 316 315 315 314 313 313 313 313 313 312 312 312 310 308 305 304 303 303 302
300 301 301 302 302 302 303 303 304 305 307 308 310 312 313 314 315 315 316 316 315 314 312 310 309 309 309 309 309 309 311 312 314 315 315 316 316 315 314 312 312 312 310 307 304 303 304 302 298 296 298 299 298 297 296 299 302 304 304 305 305 305 305 310 316 319 317 315 315 315 315 314 314 314 313 312 311 310 310 309 306 304 304 304 303 302
303 302 302 302 302 302 303 303 304 306 308 309 312 313 315 317 317 318 318 318 318 317 316 314 313 313 314 315 315 315 316 316 317 318 318 318 317 315 314 312 312 311 309 305 302 302 303 301 300 299 300 300 298 296 296 297 299 301 304 306 306 302 300 306 312 316 316 316 316 316 315 315 314 313 311 309 308 308 308 307 307 306 306 306 305 304
306 305 304 303 302 302 303 304 305 307 308 310 312 315 317 319 320 322 323 322 322 321 320 319 319 318 317 317 318 319 319 319 319 320 321 321 320 318 317 315 313 312 308 305 303 301 300 299 300 302 304 301 298 295 295 296 298 300 304 307 307 305 305 308 311 312 311 313 313 313 314 314 312 309 305 304 304 305 305 305 305 305 306 306 306 305
309 307 305 304 303 303 304 305 307 308 310 311 314 316 319 321 323 324 324 324 323 323 322 321 320 319 317 318 319 321 321 321 322 322 324 324 324 324 322 320 317 313 308 304 303 301 299 298 300 302 303 301 298 296 296 296 297 299 302 305 307 306 307 308 309 310 310 309 309 311 312 312 309 304 301 301 302 303 303 303 303 303 304 305 305 305
310 307 305 304 303 303 304 305 308 310 311 314 316 319 320 322 323 323 323 323 322 322 321 321 320 318 316 317 319 320 320 321 322 324 325 325 325 325 324 322 319 315 310 305 302 300 299 300 301 301 300 297 296 297 299 299 298 298 300 303 305 304 304 305 307 309 309 307 307 309 311 310 306 302 301 301 302 302 302 302 302 303 303 304 304 304
307 306 304 303 302 302 304 307 309 311 312 314 316 319 320 320 321 321 320 320 320 319 319 319 319 318 317 317 319 320 319 319 321 323 324 325 326 325 324 322 320 316 312 307 303 301 300 301 301 300 298 296 295 296 300 303 302 300 301 302 302 301 301 302 305 307 307 306 306 307 308 305 302 301 301 301 300 300 300 301 302 302 303 303 303 303
306 304 303 303 302 303 304 307 309 310 312 313 315 317 317 317 317 317 317 318 318 318 319 319 318 317 316 316 318 320 320 319 320 321 322 324 325 326 325 323 321 317 314 310 307 305 304 304 303 302 300 298 296 297 301 304 304 304 302 301 299 298 298 300 303 304 304 304 304 305 304 302 300 300 300 299 299 299 300 301 302 302 303 303 303 303
304 303 304 304 304 304 304 306 308 309 312 313 315 315 316 316 317 317 318 319 319 319 320 319 318 317 315 316 317 319 319 318 319 320 321 323 324 324 323 322 320 317 314 312 310 308 307 306 305 305 303 301 298 298 299 302 304 304 301 298 297 296 296 297 299 301 301 302 302 302 302 301 300 300 299 298 298 299 301 301 302 302 303 303 303 303
302 303 304 305 304 304 305 307 310 312 315 316 317 317 318 319 319 320 320 321 321 321 321 320 320 317 314 315 317 318 318 318 317 318 320 322 323 323 321 321 319 316 312 310 309 307 305 303 303 303 303 304 303 299 297 299 301 300 297 295 295 295 294 295 297 299 300 300 300 301 301 301 301 300 300 298 298 298 299 300 301 302 303 303 303 302
Height
1482 1483 1483 1484 1484 1485 1485 1485 1486 1486 1486 1486 1486 1486 1486 1486 1485 1485 1485 1484 1484 1484 1483 1483 1483 1482 1482 1481 1481 1480 1479 1479 1478 1478 1477 1477 1476 1475 1475 1474 1473 1472 1472 1471 1471 1470 1469 1469 1469 1468 1468 1468 1468 1468 1468 1468 1467 1467 1467 1467 1466 1466 1466 1466 1465 1465 1465 1465 1464 1464 1464 1464 1464 1463 1463 1463 1463 1463 1462 1462 1462 1462 1462 1462 1463 1463
1481 1482 1482 1482 1483 1483 1483 1484 1484 1485 1485 1485 1485 1485 1485 1484 1484 1483 1483 1482 1482 1482 1482 1481 1481 1480 1480 1479 1478 1478 1477 1477 1476 1476 1475 1474 1474 1473 1472 1472 1471 1471 1470 1469 1469 1468 1468 1467 1467 1467 1467 1467 1466 1466 1466 1466 1466 1465 1465 1464 1464 1464 1463 1463 1463 1462 1462 1462 1462 1462 1462 1461 1461 1461 1461 1460 1460 1460 1460 1460 1460 1460 1460 1460 1460 1460
1480 1481 1481 1482 1482 1482 1483 1483 1483 1483 1483 1483 1483 1483 1483 1483 1482 1482 1481 1481 1480 1480 1480 1479 1479 1478 1477 1477 1477 1476 1475 1475 1474 1473 1473 1472 1472 1471 1471 1470 1469 1469 1468 1467 1467 1467 1466 1466 1465 1465 1465 1465 1465 1464 1464 1464 1463 1463 1463 1462 1462 1462 1461 1461 1460 1460 1460 1460 1460 1459 1459 1459 1458 1458 1458 1458 1457 1457 1457 1457 1457 1457 1457 1457 1457 1457
1479 1480 1480 1480 1481 1481 1481 1482 1482 1482 1482 1482 1482 1482 1482 1481 1481 1480 1479 1479 1478 1478 1477 1477 1477 1476 1476 1475 1474 1474 1473 1473 1472 1472 1471 1471 1470 1469 1469 1468 1467 1467 1466 1466 1465 1465 1464 1464 1463 1463 1463 1463 1463 1463 1462 1462 1462 1461 1461 1460 1460 1459 1459 1458 1458 1458 1457 1457 1457 1457 1456 1456 1456 1456 1455 1455 1455 1455 1455 1455 1454 1454 1454 1454 1454 1454
1478 1479 1479 1479 1479 1479 1480 1480 1480 1480 1480 1480 1480 1480 1480 1479 1479 1478 1477 1477 1477 1476 1475 1475 1475 1474 1474 1473 1472 1472 1471 1471 1470 1470 1469 1469 1468 1467 1467 1466 1466 1465 1464 1464 1463 1463 1462 1462 1462 1462 1461 1461 1461 1461 1461 1460 1460 1459 1458 1458 1458 1457 1457 1456 1456 1455 1455 1455 1454 1454 1454 1453 1453 1453 1453 1452 1452 1452 1452 1452 1452 1452 1452 1452 1452 1452
1477 1477 1478 1478 1478 1479 1479 1479 1479 1479 1479 1479 1478 1478 1478 1477 1477 1476 1476 1475 1475 1474 1474 1473 1473 1472 1472 1471 1471 1470 1469 1469 1468 1468 1467 1467 1467 1466 1465 1465 1464 1463 1463 1462 1462 1461 1461 1461 1460 1460 1460 1460 1459 1459 1459 1458 1458 1457 1457 1456 1456 1455 1455 1454 1454 1453 1452 1452 1452 1452 1451 1451 1451 1451 1450 1450 1450 1450 1450 1450 1450 1449 1449 1449 1449 1449
1477 1477 1477 1477 1477 1478 1478 1478 1478 1478 1478 1477 1477 1476 1476 1476 1475 1475 1474 1473 1473 1472 1472 1471 1471 1471 1470 1470 1469 1468 1467 1467 1467 1466 1466 1465 1465 1464 1464 1463 1462 1462 1461 1461 1460 1460 1460 1459 1459 1459 1458 1458 1458 1457 1457 1456 1456 1455 1455 1454 1453 1453 1452 1452 1451 1451 1450 1450 1450 1449 1449 1449 1448 1448 1448 1448 1448 1447 1447 1447 1447 1447 1447 1447 1447 1446
1476 1476 1477 1477 1477 1477 1477 1477 1477 1477 1476 1476 1476 1475 1474 1474 1473 1473 1472 1472 1472 1471 1470 1469 1469 1469 1468 1468 1467 1467 1466 1465 1465 1464 1464 1463 1463 1462 1462 1462 1461 1460 1460 1459 1459 1459 1458 1458 1458 1457 1457 1457 1456 1456 1455 1455 1454 1454 1453 1452 1452 1451 1450 1450 1449 1449 1448 1448 1447 1447 1447 1447 1446 1446 1446 1446 1445 1445 1445 1445 1444 1444 1444 1444 1444 1444
1475 1475 1475 1475 1475 1476 1476 1476 1475 1475 1475 1475 1474 1474 1473 1473 1472 1472 1471 1471 1470 1469 1469 1468 1467 1467 1467 1467 1466 1465 1464 1463 1463 1462 1462 1462 1461 1461 1460 1460 1459 1459 1458 1458 1458 1457 1457 1457 1456 1456 1456 1455 1455 1454 1454 1453 1452 1452 1451 1451 1450 1449 1448 1448 1447 1447 1446 1446 1445 1445 1445 1444 1444 1444 1443 1443 1443 1442 1442 1442 1442 1442 1441 1441 1441 1441
1474 1474 1474 1474 1474 1474 1474 1474 1474 1474 1474 1473 1473 1472 1472 1472 1471 1470 1470 1469 1469 1468 1467 1467 1466 1466 1465 1465 1464 1464 1463 1462 1461 1461 1461 1460 1460 1459 1459 1458 1458 1457 1457 1457 1456 1456 1456 1455 1455 1454 1454 1454 1453 1453 1452 1452 1451 1450 1449 1449 1448 1447 1447 1446 1445 1445 1444 1444 1443 1443 1442 1442 1442 1442 1441 1441 1440 1440 1439 1439 1439 1439 1439 1439 1438 1438
1472 1472 1473 1473 1473 1473 1473 1473 1473 1472 1472 1472 1471 1471 1470 1470 1470 1469 1469 1468 1467 1467 1467 1466 1465 1464 1464 1463 1462 1462 1461 1460 1460 1459 1459 1459 1458 1458 1457 1457 1457 1456 1456 1455 1455 1455 1454 1454 1453 1453 1452 1452 1452 1451 1450 1450 1449 1448 1447 1447 1446 1445 1445 1444 1443 1443 1442 1442 1441 1441 1440 1440 1439 1439 1438 1438 1437 1437 1437 1437 1436 1436 1436 1436 1436 1436
1472 1472 1472 1472 1472 1472 1472 1472 1471 1471 1471 1470 1470 1470 1469 1469 1469 1469 1468 1467 1467 1466 1465 1464 1464 1463 1462 1462 1461 1461 1460 1459 1458 1458 1458 1457 1457 1457 1456 1456 1455 1455 1454 1454 1454 1453 1453 1452 1452 1452 1451 1450 1450 1449 1449 1448 1447 1446 1446 1445 1444 1443 1442 1442 1441 1441 1440 1439 1439 1438 1438 1437 1437 1437 1436 1436 1435 1435 1434 1434 1433 1433 1433 1433 1433 1433
1471 1471 1471 1471 1471 1471 1471 1471 1470 1470 1470 1470 1470 1470 1470 1469 1469 1468 1467 1467 1466 1465 1464 1463 1462 1462 1461 1461 1460 1459 1459 1458 1458 1457 1457 1457 1457 1456 1455 1455 1454 1453 1453 1452 1452 1452 1452 1451 1450 1450 1449 1449 1448 1447 1447 1446 1445 1444 1443 1443 1442 1441 1440 1440 1439 1438 1438 1437 1437 1436 1435 1435 1434 1434 1433 1433 1432 1432 1432 1431 1431 1430 1430 1430 1430 1430
1470 1470 1470 1469 1469 1470 1470 1470 1470 1470 1470 1470 1470 1470 1469 1469 1468 1467 1467 1466 1465 1464 1463 1462 1461 1461 1460 1460 1459 1459 1458 1457 1457 1457 1457 1456 1456 1455 1455 1454 1453 1452 1452 1451 1450 1450 1450 1449 1448 1448 1447 1447 1446 1445 1445 1444 1443 1442 1442 1441 1440 1439 1438 1437 1437 1436 1435 1435 1434 1433 1433 1432 1432 1431 1431 1430 1430 1429 1429 1428 1428 1428 1428 1427 1427 1427
1469 1469 1469 1469 1469 1469 1469 1470 1470 1470 1470 1470 1469 1469 1468 1467 1467 1466 1466 1465 1464 1463 1462 1461 1460 1459 1459 1459 1458 1458 1457 1457 1457 1456 1456 1455 1455 1454 1454 1453 1452 1451 1450 1449 1449 1448 1448 1447 1447 1446 1445 1445 1444 1443 1442 1442 1441 1440 1439 1439 1438 1437 1436 1436 1435 1434 1433 1433 1432 1431 1431 1430 1429 1429 1428 1428 1427 1427 1427 1426 1426 1426 1425 1425 1424 1424
1468 1468 1468 1468 1468 1469 1469 1469 1469 1469 1469 1468 1468 1467 1467 1467 1466 1466 1465 1464 1463 1462 1462 1460 1459 1458 1457 1457 1457 1457 1457 1457 1456 1456 1455 1454 1453 1453 1453 1452 1450 1449 1449 1448 1447 1447 1446 1446 1445 1444 1443 1443 1442 1442 1441 1440 1439 1438 1437 1437 1436 1435 1434 1434 1433 1432 1432 1431 1430 1429 1428 1428 1427 1427 1426 1426 1425 1424 1424 1423 1423 1423 1422 1422 1422 1422
1468 1468 1468 1468 1468 1468 1468 1468 1468 1468 1467 1467 1467 1467 1466 1466 1465 1465 1464 1463 1462 1461 1461 1460 1459 1457 1456 1456 1456 1457 1457 1456 1456 1455 1454 1452 1452 1452 1452 1450 1449 1448 1447 1447 1446 1445 1444 1444 1443 1442 1442 1441 1440 1440 1439 1438 1437 1437 1436 1435 1434 1433 1432 1432 1431 1430 1430 1429 1428 1427 1427 1426 1425 1424 1424 1423 1422 1422 1421 1421 1420 1420 1420 1419 1419 1419
1467 1467 1467 1467 1467 1467 1467 1467 1467 1467 1467 1467 1466 1466 1465 1465 1464 1463 1462 1462 1461 1461 1460 1459 1458 1457 1456 1455 1455 1456 1456 1456 1455 1454 1453 1451 1450 1450 1450 1449 1448 1447 1446 1445 1444 1444 1443 1442 1441 1441 1440 1439 1439 1438 1437 1436 1436 1435 1434 1433 1432 1432 1431 1430 1429 1428 1427 1427 1426 1425 1424 1423 1423 1422 1421 1421 1420 1419 1419 1418 1418 1417 1417 1417 1417 1416
1466 1466 1466 1466 1466 1466 1466 1466 1466 1466 1466 1465 1465 1464 1464 1463 1462 1462 1462 1461 1460 1460 1459 1458 1457 1457 1456 1455 1455 1455 1455 1455 1454 1453 1451 1450 1449 1448 1448 1447 1446 1445 1444 1443 1443 1442 1442 1441 1440 1439 1438 1438 1437 1436 1436 1435 1434 1433 1432 1432 1431 1430 1429 1428 1427 1426 1426 1425 1424 1423 1422 1422 1421 1420 1419 1418 1418 1417 1417 1416 1415 1415 1414 1414 1414 1414
1465 1465 1465 1465 1465 1465 1465 1465 1465 1465 1464 1464 1463 1462 1462 1462 1461 1461 1460 1460 1459 1459 1458 1457 1457 1456 1455 1454 1454 1454 1454 1454 1453 1452 1450 1448 1447 1447 1447 1446 1445 1444 1443 1442 1441 1441 1440 1439 1438 1437 1437 1436 1435 1435 1434 1433 1432 1432 1431 1430 1429 1428 1427 1426 1425 1424 1423 1422 1422 1421 1420 1419 1418 1418 1417 1416 1415 1415 1414 1413 1413 1412 1412 1412 1412 1411
1465 1465 1465 1465 1465 1464 1464 1464 1463 1463 1462 1462 1462 1461 1461 1460 1460 1459 1459 1458 1458 1457 1457 1457 1456 1455 1454 1454 1453 1452 1453 1452 1452 1451 1449 1447 1446 1445 1445 1445 1444 1442 1441 1440 1440 1439 1439 1437 1437 1436 1435 1435 1434 1433 1432 1432 1431 1430 1429 1428 1427 1426 1425 1424 1423 1422 1422 1421 1420 1419 1418 1417 1416 1416 1415 1414 1413 1412 1412 1411 1411 1410 1410 1409 1409 1408
1463 1463 1463 1463 1463 1463 1462 1462 1462 1461 1461 1461 1460 1460 1459 1459 1459 1458 1458 1457 1457 1457 1456 1456 1455 1454 1453 1452 1452 1451 1452 1452 1451 1450 1448 1446 1444 1443 1444 1444 1442 1441 1440 1439 1438 1438 1437 1436 1435 1434 1434 1433 1432 1432 1431 1430 1429 1428 1427 1427 1426 1425 1424 1422 1422 1421 1420 1419 1418 1417 1416 1415 1414 1413 1412 1412 1411 1410 1410 1409 1408 1408 1407 1407 1406 1406
1462 1462 1462 1461 1461 1461 1460 1460 1460 1460 1460 1459 1459 1459 1458 1458 1457 1457 1457 1457 1456 1456 1455 1454 1453 1452 1452 1451 1450 1450 1450 1450 1450 1449 1448 1445 1443 1442 1443 1442 1442 1440 1439 1438 1437 1437 1436 1435 1434 1433 1432 1432 1431 1430 1429 1428 1427 1427 1426 1425 1424 1423 1422 1421 1420 1419 1418 1417 1416 1415 1414 1413 1412 1411 1410 1409 1409 1408 1407 1406 1406 1405 1404 1404 1403 1403
1460 1460 1459 1459 1459 1459 1459 1459 1458 1458 1458 1458 1457 1457 1457 1457 1457 1457 1456 1456 1455 1454 1453 1452 1452 1451 1450 1450 1449 1449 1449 1449 1449 1448 1447 1445 1443 1442 1442 1442 1441 1439 1438 1437 1436 1435 1434 1433 1432 1431 1430 1430 1429 1428 1427 1427 1426 1425 1424 1423 1422 1421 1420 1419 1418 1417 1416 1415 1414 1413 1412 1411 1410 1409 1408 1407 1407 1406 1405 1404 1403 1402 1402 1401 1401 1400
1458 1458 1458 1458 1458 1457 1457 1457 1457 1457 1457 1456 1456 1456 1455 1455 1455 1455 1454 1454 1453 1452 1452 1451 1451 1450 1449 1448 1448 1448 1448 1448 1448 1447 1446 1444 1442 1441 1441 1441 1440 1438 1437 1436 1435 1434 1432 1431 1430 1429 1429 1428 1427 1427 1426 1425 1424 1423 1422 1421 1420 1419 1418 1417 1416 1415 1414 1413 1412 1411 1410 1409 1408 1407 1406 1405 1404 1403 1402 1402 1401 1400 1399 1399 1398 1397
1457 1457 1457 1457 1457 1457 1456 1456 1456 1456 1455 1455 1455 1455 1454 1454 1453 1453 1452 1452 1452 1452 1451 1451 1450 1448 1448 1447 1447 1447 1447 1447 1447 1446 1445 1443 1441 1440 1439 1439 1439 1437 1435 1434 1433 1432 1431 1429 1428 1427 1427 1426 1425 1425 1424 1423 1422 1421 1420 1419 1418 1417 1416 1415 1414 1413 1412 1411 1410 1409 1408 1407 1406 1405 1404 1403 1402 1401 1400 1399 1399 1398 1397 1397 1396 1395
1456 1456 1456 1456 1456 1455 1455 1455 1455 1455 1454 1454 1454 1453 1453 1453 1452 1452 1451 1451 1451 1451 1451 1450 1448 1447 1447 1446 1446 1445 1445 1445 1445 1445 1444 1443 1441 1439 1438 1438 1437 1436 1434 1433 1432 1431 1429 1427 1426 1425 1425 1424 1423 1422 1422 1421 1420 1419 1418 1417 1417 1416 1415 1413 1412 1411 1410 1409 1408 1407 1406 1405 1404 1403 1402 1401 1400 1399 1398 1397 1397 1396 1395 1394 1393 1392
1455 1455 1455 1454 1454 1454 1454 1453 1453 1453 1453 1453 1453 1452 1452 1452 1451 1450 1450 1450 1450 1450 1449 1448 1447 1447 1446 1445 1444 1444 1444 1444 1443 1443 1442 1442 1440 1438 1437 1437 1437 1435 1434 1432 1429 1428 1427 1426 1424 1423 1422 1422 1421 1420 1420 1419 1418 1417 1417 1416 1415 1414 1412 1412 1410 1409 1408 1407 1406 1405 1404 1403 1402 1401 1400 1399 1398 1397 1396 1396 1395 1394 1393 1392 1391 1390
1454 1453 1453 1453 1453 1452 1452 1452 1452 1452 1452 1452 1451 1451 1451 1450 1450 1449 1448 1449 1449 1448 1448 1447 1446 1446 1445 1444 1443 1442 1442 1442 1442 1442 1441 1440 1438 1437 1437 1436 1436 1434 1433 1430 1427 1425 1424 1424 1423 1422 1421 1420 1419 1418 1417 1417 1416 1416 1415 1414 1413 1412 1410 1409 1408 1407 1406 1405 1404 1402 1402 1401 1400 1399 1398 1397 1396 1395 1395 1394 1393 1392 1391 1390 1389 1387
1452 1452 1452 1452 1452 1451 1451 1451 1451 1451 1450 1450 1450 1450 1449 1449 1448 1448 1448 1448 1447 1447 1446 1446 1445 1445 1444 1443 1442 1441 1440 1441 1441 1441 1440 1440 1438 1437 1436 1435 1434 1433 1432 1430 1427 1423 1421 1421 1421 1421 1420 1418 1417 1417 1416 1415 1414 1413 1412 1411 1410 1409 1408 1407 1406 1405 1404 1402 1402 1401 1400 1399 1398 1397 1396 1395 1394 1393 1393 1392 1391 1390 1389 1388 1387 1385
1451 1451 1451 1451 1450 1450 1450 1450 1449 1449 1449 1449 1449 1448 1448 1447 1447 1447 1447 1446 1446 1445 1445 1444 1444 1443 1443 1442 1441 1440 1439 1440 1441 1441 1440 1439 1437 1436 1435 1434 1433 1432 1432 1431 1428 1424 1420 1417 1417 1418 1418 1417 1416 1415 1414 1413 1412 1411 1410 1409 1407 1407 1406 1405 1404 1402 1402 1400 1399 1398 1397 1397 1396 1395 1394 1393 1392 1392 1391 1390 1389 1388 1387 1386 1384 1383
1450 1450 1450 1450 1449 1449 1449 1448 1448 1448 1448 1447 1447 1447 1447 1446 1446 1446 1445 1445 1444 1444 1443 1443 1442 1442 1442 1441 1440 1439 1438 1439 1439 1439 1439 1438 1436 1435 1434 1433 1432 1431 1430 1429 1428 1426 1422 1417 1415 1415 1415 1414 1413 1412 1411 1411 1410 1409 1408 1407 1405 1404 1403 1403 1402 1400 1399 1398 1397 1397 1396 1395 1394 1393 1392 1391 1390 1389 1389 1388 1387 1387 1385 1384 1382 1381
1449 1449 1449 1449 1448 1448 1448 1447 1447 1447 1447 1446 1446 1446 1445 1445 1445 1444 1444 1443 1443 1442 1442 1442 1441 1440 1440 1439 1438 1437 1437 1437 1437 1438 1437 1436 1435 1433 1432 1432 1430 1429 1428 1427 1427 1425 1423 1419 1415 1412 1412 1411 1411 1410 1409 1408 1408 1407 1406 1405 1403 1402 1401 1401 1399 1398 1397 1396 1395 1394 1393 1392 1392 1391 1390 1389 1388 1387 1386 1386 1385 1384 1383 1382 1381 1380
1449 1448 1448 1448 1447 1447 1447 1447 1446 1446 1445 1445 1445 1444 1444 1443 1443 1443 1442 1442 1442 1441 1441 1440 1440 1439 1438 1437 1437 1436 1435 1436 1436 1436 1436 1435 1433 1432 1431 1430 1429 1428 1427 1425 1424 1423 1421 1419 1416 1413 1410 1409 1408 1408 1407 1407 1406 1405 1404 1403 1402 1401 1399 1398 1397 1396 1395 1394 1393 1392 1391 1390 1389 1388 1387 1387 1386 1385 1384 1383 1383 1382 1382 1381 1380 1378
1448 1447 1447 1447 1447 1446 1446 1446 1445 1445 1444 1444 1443 1443 1442 1442 1442 1441 1441 1441 1440 1440 1439 1439 1438 1438 1437 1436 1435 1434 1434 1434 1435 1435 1434 1433 1432 1431 1429 1428 1427 1427 1425 1424 1423 1421 1419 1417 1416 1414 1411 1408 1406 1405 1406 1405 1405 1404 1403 1402 1401 1399 1398 1397 1396 1394 1393 1392 1391 1389 1388 1387 1387 1386 1385 1384 1383 1382 1382 1381 1381 1380 1380 1379 1378 1377
1447 1447 1446 1446 1446 1445 1445 1445 1444 1444 1443 1443 1442 1442 1441 1441 1440 1440 1439 1439 1438 1438 1438 1437 1437 1436 1436 1435 1434 1433 1433 1433 1434 1433 1433 1432 1431 1430 1428 1427 1426 1425 1424 1422 1421 1420 1418 1416 1414 1412 1411 1408 1405 1403 1403 1403 1403 1402 1401 1400 1399 1398 1397 1395 1394 1393 1391 1390 1388 1387 1386 1385 1384 1383 1383 1382 1381 1381 1380 1379 1379 1378 1377 1377 1377 1376
1446 1446 1446 1445 1445 1444 1444 1443 1443 1442 1442 1442 1441 1440 1440 1439 1439 1438 1438 1437 1437 1437 1436 1436 1435 1435 1434 1434 1433 1433 1432 1432 1432 1432 1432 1431 1430 1428 1427 1425 1424 1424 1423 1422 1420 1419 1417 1415 1413 1411 1410 1408 1406 1403 1401 1401 1400 1400 1399 1398 1397 1396 1394 1393 1392 1391 1389 1388 1387 1385 1384 1384 1383 1382 1381 1380 1379 1378 1377 1377 1376 1376 1375 1374 1374 1373
1445 1445 1445 1444 1444 1443 1443 1442 1442 1441 1441 1440 1440 1439 1439 1438 1438 1437 1437 1436 1436 1435 1435 1434 1434 1433 1433 1432 1432 1432 1431 1431 1431 1430 1430 1429 1428 1427 1425 1424 1422 1422 1422 1421 1419 1418 1417 1415 1412 1410 1408 1406 1405 1403 1402 1400 1399 1397 1396 1395 1395 1393 1392 1391 1390 1389 1388 1386 1385 1384 1383 1382 1381 1380 1379 1378 1377 1376 1375 1374 1373 1373 1372 1372 1371 1370
1444 1444 1444 1443 1443 1442 1442 1441 1441 1440 1440 1439 1438 1438 1437 1437 1437 1436 1436 1435 1434 1434 1433 1433 1432 1432 1431 1431 1431 1430 1430 1430 1429 1429 1428 1427 1427 1425 1424 1422 1421 1420 1420 1419 1418 1417 1415 1414 1412 1410 1407 1405 1403 1401 1400 1399 1398 1396 1394 1393 1392 1391 1390 1390 1389 1387 1386 1385 1383 1382 1381 1380 1379 1378 1377 1376 1375 1374 1373 1372 1371 1371 1370 1369 1368 1367
1444 1443 1443 1442 1442 1442 1441 1440 1440 1439 1439 1438 1437 1437 1437 1436 1435 1435 1434 1434 1433 1433 1432 1432 1431 1430 1430 1430 1429 1429 1428 1428 1428 1427 1427 1426 1425 1424 1423 1421 1420 1419 1418 1417 1416 1415 1414 1412 1410 1409 1407 1405 1403 1400 1399 1397 1397 1395 1394 1392 1390 1388 1388 1387 1387 1386 1384 1383 1382 1380 1379 1378 1377 1376 1375 1374 1373 1372 1371 1370 1369 1368 1368 1367 1366 1365
1443 1442 1442 1442 1441 1441 1440 1440 1439 1438 1438 1437 1437 1436 1436 1435 1434 1434 1433 1432 1432 1432 1431 1430 1430 1429 1428 1428 1428 1427 1427 1427 1426 1426 1425 1424 1423 1422 1421 1420 1418 1417 1416 1415 1414 1413 1412 1411 1409 1407 1406 1404 1402 1400 1398 1396 1395 1395 1394 1392 1389 1387 1386 1385 1384 1383 1382 1381 1380 1379 1378 1377 1375 1374 1373 1372 1372 1371 1370 1369 1368 1367 1366 1365 1365 1363
1442 1442 1441 1441 1440 1440 1439 1439 1438 1437 1437 1436 1436 1435 1435 1434 1433 1433 1432 1432 1431 1430 1430 1429 1428 1427 1427 1426 1426 1426 1425 1425 1424 1424 1423 1422 1422 1420 1419 1418 1417 1416 1415 1414 1412 1411 1410 1409 1407 1406 1404 1403 1402 1399 1397 1394 1393 1393 1392 1391 1388 1386 1384 1382 1382 1382 1381 1380 1378 1377 1376 1375 1373 1372 1371 1370 1369 1368 1367 1367 1366 1365 1364 1363 1362 1361
1441 1441 1440 1440 1440 1439 1438 1438 1437 1437 1436 1436 1435 1434 1434 1433 1432 1432 1431 1431 1430 1429 1429 1428 1427 1426 1425 1425 1424 1424 1424 1423 1423 1422 1422 1421 1420 1419 1418 1417 1416 1415 1414 1412 1411 1409 1408 1407 1406 1404 1403 1402 1401 1398 1396 1393 1392 1391 1390 1389 1388 1386 1383 1380 1379 1380 1379 1378 1376 1375 1374 1373 1371 1370 1369 1367 1366 1365 1364 1364 1363 1362 1362 1361 1360 1359
1441 1440 1440 1439 1439 1438 1437 1437 1436 1436 1435 1435 1434 1434 1433 1432 1432 1431 1430 1430 1429 1428 1427 1427 1426 1425 1424 1423 1422 1422 1422 1421 1421 1421 1420 1419 1418 1418 1417 1416 1414 1413 1412 1411 1410 1408 1407 1405 1404 1403 1402 1401 1399 1397 1394 1392 1390 1389 1388 1387 1387 1386 1383 1380 1378 1377 1376 1375 1374 1373 1372 1371 1369 1368 1366 1365 1364 1363 1362 1361 1360 1360 1359 1358 1357 1356
1440 1439 1439 1438 1438 1437 1437 1436 1436 1435 1434 1434 1433 1433 1432 1432 1431 1430 1430 1429 1428 1427 1427 1426 1425 1424 1422 1422 1421 1420 1419 1419 1419 1418 1418 1417 1417 1416 1415 1414 1413 1412 1411 1410 1408 1407 1406 1404 1402 1401 1400 1399 1397 1395 1393 1391 1389 1387 1386 1385 1384 1383 1381 1379 1377 1376 1374 1373 1372 1371 1370 1369 1368 1366 1364 1363 1362 1361 1360 1359 1358 1357 1356 1355 1355 1354
1439 1439 1438 1437 1437 1437 1436 1435 1435 1434 1434 1433 1432 1432 1431 1431 1430 1429 1429 1428 1427 1426 1426 1425 1424 1423 1421 1420 1419 1419 1417 1417 1416 1416 1415 1415 1414 1413 1413 1412 1411 1410 1409 1408 1407 1406 1404 1403 1401 1400 1398 1397 1395 1393 1391 1389 1388 1386 1384 1383 1382 1381 1379 1377 1376 1374 1373 1372 1370 1369 1368 1367 1367 1365 1363 1361 1359 1358 1357 1357 1356 1355 1354 1353 1352 1351
1438 1438 1437 1437 1436 1436 1435 1435 1434 1433 1433 1432 1432 1431 1430 1430 1429 1428 1427 1427 1426 1425 1424 1423 1422 1422 1420 1419 1418 1417 1416 1415 1414 1413 1413 1412 1412 1411 1411 1410 1409 1408 1407 1407 1405 1404 1402 1401 1400 1399 1397 1395 1392 1390 1388 1387 1386 1385 1382 1381 1380 1379 1377 1375 1373 1372 1372 1370 1369 1367 1367 1366 1365 1363 1361 1359 1358 1356 1355 1355 1354 1353 1352 1351 1350 1349
1438 1437 1437 1436 1436 1435 1434 1434 1433 1432 1432 1431 1431 1430 1430 1429 1428 1427 1427 1426 1425 1424 1423 1422 1421 1420 1419 1418 1417 1417 1415 1414 1413 1412 1411 1411 1410 1409 1409 1408 1407 1407 1406 1405 1403 1402 1401 1399 1398 1397 1396 1394 1392 1388 1385 1384 1384 1383 1381 1380 1378 1377 1375 1373 1372 1371 1370 1369 1367 1366 1366 1365 1363 1362 1360 1358 1356 1354 1353 1352 1351 1351 1350 1349 1348 1347
1437 1437 1436 1435 1435 1434 1433 1433 1432 1432 1431 1430 1430 1429 1429 1428 1428 1427 1426 1425 1424 1423 1422 1421 1420 1419 1418 1417 1416 1415 1414 1413 1412 1411 1410 1409 1408 1408 1407 1406 1405 1404 1403 1402 1401 1400 1398 1397 1396 1395 1394 1392 1390 1387 1384 1382 1381 1381 1380 1378 1377 1375 1373 1371 1370 1369 1369 1367 1366 1365 1365 1364 1362 1361 1359 1357 1354 1352 1350 1349 1348 1348 1347 1347 1346 1345
1436 1436 1435 1435 1434 1433 1433 1432 1432 1431 1430 1430 1429 1428 1428 1427 1427 1426 1425 1424 1423 1422 1421 1420 1419 1418 1417 1415 1414 1414 1413 1412 1411 1409 1408 1408 1407 1406 1405 1404 1404 1403 1401 1400 1399 1397 1396 1394 1392 1392 1391 1390 1389 1387 1384 1381 1380 1379 1378 1377 1376 1374 1372 1371 1369 1368 1367 1366 1365 1364 1363 1362 1361 1359 1358 1356 1353 1350 1348 1347 1346 1345 1345 1345 1344 1342
1436 1435 1434 1434 1433 1432 1432 1431 1431 1430 1429 1429 1428 1427 1427 1426 1425 1424 1424 1423 1422 1421 1420 1419 1418 1417 1415 1414 1413 1412 1412 1411 1409 1408 1407 1406 1406 1405 1404 1403 1402 1401 1400 1398 1397 1395 1394 1392 1390 1388 1387 1388 1388 1387 1384 1382 1380 1378 1377 1375 1374 1374 1372 1370 1368 1367 1366 1365 1364 1362 1361 1360 1358 1357 1356 1354 1352 1349 1346 1344 1343 1342 1342 1342 1342 1340